User: anonymous   Login
Location: Unspecified
(0.0000°N, 0.0000°E)
Time: 10:00:56
(UTC+02:00)
Language:

Cosmos 1703 Rocket - Orbit

View from above orbital plane
View from above orbital plane
View from above satellite
View from above satellite

Ground track
Ground track

The orbit data is extracted from the following two-line orbital elements,

1 16263U 85108B   17114.74862675 +.00000168 +00000-0 +17707-4 0  9990
2 16263 082.5039 164.4575 0020652 160.0785 338.9289 14.82980561696468
Epoch (UTC): 24 April 2017 17:58:01
Eccentricity: 0.0020652
inclination: 82.5039°
perigee height: 605 km
apogee height: 634 km
right ascension of ascending node: 164.4575°
argument of perigee: 160.0785°
revolutions per day: 14.82980561
mean anomaly at epoch: 338.9289°
orbit number at epoch: 69646

The dashed part of the orbit path shows where the satellite is in the earth's shadow,  

DLR